GGIMF EDMO-LKVO

Flight info

Callsign GGIMF
Flight time N/A
Altitude 5000
Route MAH L132 MAMOR DCT RDG DCT RUDAP DCT IDPUR DCT APRAQ EKROT
Aircraft DR40/L-SDGY/S

Departure

Time N/A
Airport Oberpfaffenhofen Airport (EDMO)

Arrival

Time 2026-05-01 08:26
Airport Vodochody Airport (LKVO)
Time Latitude Longitude Altitude Speed Heading
2026-05-01 07:23 49.20084 13.11268 4953 ft 98 kts 68°
2026-05-01 07:23 49.20610 13.13222 4989 ft 103 kts 67°
2026-05-01 07:24 49.20883 13.14239 4979 ft 103 kts 67°
2026-05-01 07:24 49.21153 13.15241 4981 ft 102 kts 66°
2026-05-01 07:24 49.21423 13.16246 4978 ft 102 kts 67°
2026-05-01 07:24 49.21693 13.17250 4964 ft 101 kts 67°
2026-05-01 07:25 49.21960 13.18236 4968 ft 100 kts 68°
2026-05-01 07:25 49.22220 13.19219 4969 ft 100 kts 66°
2026-05-01 07:25 49.22488 13.20202 4970 ft 100 kts 67°
2026-05-01 07:25 49.22755 13.21192 4955 ft 100 kts 67°
2026-05-01 07:26 49.23013 13.22159 4967 ft 98 kts 68°
2026-05-01 07:26 49.23278 13.23142 4998 ft 101 kts 67°
2026-05-01 07:26 49.23549 13.24148 4975 ft 103 kts 67°
2026-05-01 07:26 49.23821 13.25168 4970 ft 102 kts 68°
2026-05-01 07:27 49.24088 13.26160 4954 ft 101 kts 67°
2026-05-01 07:27 49.24388 13.27125 4991 ft 100 kts 64°
2026-05-01 07:27 49.24695 13.28072 4995 ft 100 kts 64°
2026-05-01 07:27 49.25006 13.29027 5008 ft 100 kts 63°
2026-05-01 07:28 49.25321 13.29989 5005 ft 101 kts 63°
2026-05-01 07:28 49.25634 13.30953 5001 ft 101 kts 64°
2026-05-01 07:28 49.25949 13.31918 4998 ft 101 kts 63°
2026-05-01 07:28 49.26258 13.32867 5006 ft 100 kts 63°
2026-05-01 07:29 49.26573 13.33833 5005 ft 101 kts 63°
2026-05-01 07:29 49.26886 13.34789 5003 ft 101 kts 63°
2026-05-01 07:29 49.27204 13.35765 5003 ft 101 kts 63°
2026-05-01 07:29 49.27518 13.36732 4997 ft 101 kts 63°
2026-05-01 07:30 49.27832 13.37691 5007 ft 100 kts 63°
2026-05-01 07:30 49.28141 13.38640 5008 ft 101 kts 63°
2026-05-01 07:30 49.28455 13.39600 5008 ft 101 kts 63°
2026-05-01 07:30 49.28769 13.40568 5008 ft 101 kts 63°
2026-05-01 07:31 49.29080 13.41521 5010 ft 100 kts 63°
2026-05-01 07:31 49.30017 13.44405 5013 ft 101 kts 62°
2026-05-01 07:32 49.30637 13.46314 5009 ft 101 kts 62°
2026-05-01 07:32 49.30951 13.47275 5013 ft 100 kts 63°
2026-05-01 07:33 49.31574 13.49193 5017 ft 100 kts 63°
2026-05-01 07:33 49.31886 13.50153 5017 ft 100 kts 63°
2026-05-01 07:33 49.32509 13.52078 5015 ft 100 kts 63°
2026-05-01 07:34 49.32820 13.53038 5016 ft 101 kts 63°
2026-05-01 07:34 49.33440 13.54953 5013 ft 100 kts 63°
2026-05-01 07:34 49.33752 13.55917 5010 ft 100 kts 63°
2026-05-01 07:35 49.34063 13.56877 5008 ft 101 kts 63°
2026-05-01 07:35 49.34372 13.57833 5007 ft 101 kts 63°
2026-05-01 07:35 49.34683 13.58794 5008 ft 100 kts 63°
2026-05-01 07:35 49.34993 13.59756 5010 ft 100 kts 63°
2026-05-01 07:36 49.35302 13.60717 5014 ft 100 kts 62°
2026-05-01 07:36 49.35611 13.61675 5016 ft 100 kts 62°
2026-05-01 07:36 49.35919 13.62629 5017 ft 100 kts 62°
2026-05-01 07:36 49.36232 13.63596 5018 ft 100 kts 62°
2026-05-01 07:37 49.36850 13.65513 5019 ft 100 kts 63°
2026-05-01 07:37 49.37163 13.66487 5020 ft 101 kts 63°
2026-05-01 07:37 49.37474 13.67448 5021 ft 101 kts 63°
2026-05-01 07:38 49.37787 13.68422 5020 ft 102 kts 63°
2026-05-01 07:38 49.38098 13.69383 5021 ft 101 kts 63°
2026-05-01 07:38 49.38724 13.71329 5022 ft 101 kts 63°
2026-05-01 07:39 49.39034 13.72294 5022 ft 101 kts 63°
2026-05-01 07:39 49.39345 13.73263 5024 ft 101 kts 63°
2026-05-01 07:39 49.39963 13.75187 5024 ft 101 kts 63°
2026-05-01 07:40 49.40274 13.76155 5023 ft 101 kts 63°
2026-05-01 07:40 49.40583 13.77121 5023 ft 101 kts 62°
2026-05-01 07:40 49.40895 13.78092 5022 ft 101 kts 62°
2026-05-01 07:40 49.41207 13.79064 5022 ft 101 kts 63°
2026-05-01 07:41 49.41515 13.80023 5021 ft 101 kts 62°
2026-05-01 07:41 49.41828 13.81002 5019 ft 101 kts 63°
2026-05-01 07:41 49.42707 13.82677 5015 ft 103 kts 43°
2026-05-01 07:42 49.43245 13.83402 5011 ft 103 kts 43°
2026-05-01 07:42 49.43783 13.84121 5012 ft 103 kts 43°
2026-05-01 07:42 49.44326 13.84844 5015 ft 102 kts 42°
2026-05-01 07:42 49.44867 13.85564 5021 ft 102 kts 42°
2026-05-01 07:43 49.45402 13.86274 5026 ft 102 kts 42°
2026-05-01 07:43 49.45942 13.86993 5026 ft 103 kts 42°
2026-05-01 07:43 49.47026 13.88429 5027 ft 102 kts 42°
2026-05-01 07:44 49.48105 13.89861 5026 ft 103 kts 41°
2026-05-01 07:44 49.49190 13.91297 5025 ft 103 kts 42°
2026-05-01 07:45 49.49735 13.92019 5026 ft 103 kts 42°
2026-05-01 07:45 49.50273 13.92732 5027 ft 103 kts 42°
2026-05-01 07:45 49.50818 13.93456 5027 ft 103 kts 42°
2026-05-01 07:45 49.51361 13.94179 5025 ft 103 kts 42°
2026-05-01 07:46 49.51899 13.94892 5027 ft 103 kts 42°
2026-05-01 07:46 49.52441 13.95612 5027 ft 103 kts 42°
2026-05-01 07:46 49.53440 13.97189 5027 ft 102 kts 46°
2026-05-01 07:47 49.53927 13.97988 5027 ft 102 kts 46°
2026-05-01 07:47 49.54406 13.98779 5026 ft 102 kts 47°
2026-05-01 07:47 49.54888 13.99579 5026 ft 102 kts 47°
2026-05-01 07:47 49.55368 14.00382 5027 ft 102 kts 47°
2026-05-01 07:48 49.56327 14.01998 5027 ft 102 kts 47°
2026-05-01 07:48 49.56806 14.02810 5028 ft 102 kts 47°
2026-05-01 07:48 49.57279 14.03613 5027 ft 102 kts 48°
2026-05-01 07:49 49.57762 14.04435 5027 ft 102 kts 48°
2026-05-01 07:49 49.58713 14.06055 5028 ft 102 kts 47°
2026-05-01 07:49 49.59192 14.06872 5027 ft 102 kts 47°
2026-05-01 07:50 49.59665 14.07679 5028 ft 102 kts 47°
2026-05-01 07:50 49.60622 14.09312 4999 ft 103 kts 47°
2026-05-01 07:50 49.61101 14.10131 4998 ft 103 kts 47°
2026-05-01 07:51 49.61583 14.10952 4999 ft 103 kts 47°
2026-05-01 07:51 49.62059 14.11768 5000 ft 103 kts 47°
2026-05-01 07:51 49.62537 14.12585 4998 ft 103 kts 47°
2026-05-01 07:52 49.63495 14.14224 4998 ft 103 kts 47°
2026-05-01 07:52 49.63974 14.15045 4998 ft 102 kts 47°
2026-05-01 07:52 49.64451 14.15863 4997 ft 102 kts 47°
2026-05-01 07:53 49.65402 14.17493 4998 ft 102 kts 47°
2026-05-01 07:53 49.65880 14.18313 4995 ft 102 kts 47°
2026-05-01 07:53 49.66358 14.19134 4991 ft 103 kts 46°
2026-05-01 07:53 49.66838 14.19959 4986 ft 103 kts 46°
2026-05-01 07:54 49.67795 14.21600 4983 ft 103 kts 46°
2026-05-01 07:55 49.69227 14.24058 4988 ft 102 kts 47°
2026-05-01 07:55 49.70173 14.25683 4991 ft 102 kts 47°
2026-05-01 07:56 49.71599 14.28139 4996 ft 102 kts 47°
2026-05-01 07:56 49.72547 14.29774 4995 ft 102 kts 46°
2026-05-01 07:57 49.73021 14.30599 4995 ft 103 kts 47°
2026-05-01 07:57 49.73965 14.32247 4995 ft 103 kts 46°
2026-05-01 07:58 49.74913 14.33903 4997 ft 103 kts 47°
2026-05-01 07:58 49.75864 14.35558 4996 ft 103 kts 46°
2026-05-01 07:59 49.76815 14.37206 4997 ft 103 kts 46°
2026-05-01 07:59 49.77764 14.38848 4998 ft 103 kts 46°
2026-05-01 08:00 49.79671 14.42148 5000 ft 103 kts 46°
2026-05-01 08:01 49.81102 14.44627 5003 ft 103 kts 46°
2026-05-01 08:01 49.81579 14.45452 5002 ft 103 kts 46°
2026-05-01 08:01 49.82058 14.46283 5003 ft 103 kts 46°
2026-05-01 08:02 49.83012 14.47938 5004 ft 103 kts 45°
2026-05-01 08:02 49.83490 14.48768 5003 ft 103 kts 45°
2026-05-01 08:03 49.84441 14.50419 5005 ft 103 kts 45°
2026-05-01 08:03 49.84921 14.51252 5005 ft 103 kts 45°
2026-05-01 08:03 49.85876 14.52910 5007 ft 103 kts 45°
2026-05-01 08:04 49.86829 14.54568 5007 ft 103 kts 45°
2026-05-01 08:04 49.87786 14.56233 5005 ft 104 kts 45°
2026-05-01 08:05 49.88745 14.57902 5000 ft 103 kts 45°
2026-05-01 08:05 49.89220 14.58731 5000 ft 103 kts 45°
2026-05-01 08:05 49.89698 14.59565 4999 ft 103 kts 45°
2026-05-01 08:06 49.90653 14.61229 4999 ft 103 kts 45°
2026-05-01 08:06 49.91597 14.62873 5001 ft 103 kts 45°
2026-05-01 08:07 49.92557 14.64551 4869 ft 108 kts 46°
2026-05-01 08:07 49.93578 14.66343 4520 ft 112 kts 46°
2026-05-01 08:08 49.94098 14.67256 4340 ft 113 kts 46°
2026-05-01 08:08 49.95137 14.69077 3990 ft 114 kts 46°
2026-05-01 08:09 49.96191 14.70921 3630 ft 114 kts 45°
2026-05-01 08:09 49.96720 14.71847 3451 ft 114 kts 45°
2026-05-01 08:09 49.97248 14.72770 3271 ft 115 kts 46°
2026-05-01 08:10 49.98308 14.74624 2919 ft 116 kts 46°
2026-05-01 08:10 49.99371 14.76479 2864 ft 111 kts 46°
2026-05-01 08:11 50.00393 14.78271 2996 ft 112 kts 45°
2026-05-01 08:11 50.01444 14.80116 2997 ft 115 kts 45°
2026-05-01 08:12 50.02513 14.81996 2995 ft 116 kts 45°
2026-05-01 08:12 50.03048 14.82936 2996 ft 117 kts 45°
2026-05-01 08:12 50.04124 14.84828 2998 ft 117 kts 45°
2026-05-01 08:13 50.04661 14.85775 2997 ft 116 kts 45°
2026-05-01 08:13 50.05196 14.86716 2997 ft 116 kts 45°
2026-05-01 08:13 50.06340 14.88429 3009 ft 114 kts 16°
2026-05-01 08:14 50.07128 14.88627 3008 ft 115 kts
2026-05-01 08:14 50.07923 14.88731 3004 ft 115 kts
2026-05-01 08:14 50.08716 14.88813 3004 ft 114 kts
2026-05-01 08:14 50.09516 14.88882 3005 ft 114 kts
2026-05-01 08:15 50.10312 14.88948 2989 ft 115 kts
2026-05-01 08:15 50.11901 14.88531 2653 ft 122 kts 324°
2026-05-01 08:15 50.12511 14.87633 2519 ft 121 kts 316°
2026-05-01 08:16 50.13057 14.86669 2506 ft 116 kts 306°
2026-05-01 08:16 50.13464 14.85596 2504 ft 115 kts 297°
2026-05-01 08:16 50.13784 14.84454 2500 ft 115 kts 292°
2026-05-01 08:16 50.14058 14.83267 2499 ft 115 kts 289°
2026-05-01 08:17 50.14302 14.82081 2495 ft 116 kts 287°
2026-05-01 08:17 50.14532 14.80860 2497 ft 116 kts 286°
2026-05-01 08:17 50.14749 14.79661 2499 ft 115 kts 286°
2026-05-01 08:17 50.14962 14.78463 2498 ft 115 kts 286°
2026-05-01 08:18 50.15177 14.77248 2499 ft 116 kts 286°
2026-05-01 08:18 50.15599 14.74821 2500 ft 116 kts 286°
2026-05-01 08:19 50.15995 14.72366 2505 ft 116 kts 280°
2026-05-01 08:19 50.16202 14.71159 2505 ft 115 kts 287°
2026-05-01 08:19 50.16422 14.69962 2504 ft 116 kts 287°
2026-05-01 08:19 50.16640 14.68741 2507 ft 117 kts 286°
2026-05-01 08:20 50.16852 14.67526 2507 ft 117 kts 286°
2026-05-01 08:20 50.17062 14.66310 2507 ft 116 kts 285°
2026-05-01 08:20 50.17272 14.65087 2507 ft 117 kts 285°
2026-05-01 08:20 50.17481 14.63867 2508 ft 117 kts 285°
2026-05-01 08:21 50.17693 14.62626 2504 ft 118 kts 285°
2026-05-01 08:21 50.17902 14.61397 2499 ft 117 kts 285°
2026-05-01 08:21 50.18113 14.60164 2501 ft 117 kts 286°
2026-05-01 08:21 50.18322 14.58938 2501 ft 117 kts 285°
2026-05-01 08:22 50.18530 14.57721 2500 ft 116 kts 286°
2026-05-01 08:22 50.18738 14.56504 2500 ft 114 kts 286°
2026-05-01 08:22 50.18941 14.55338 2499 ft 109 kts 287°
2026-05-01 08:22 50.19135 14.54227 2496 ft 103 kts 287°
2026-05-01 08:23 50.19321 14.53153 2480 ft 101 kts 287°
2026-05-01 08:23 50.19501 14.52134 2355 ft 96 kts 286°
2026-05-01 08:23 50.19673 14.51138 2230 ft 93 kts 286°
2026-05-01 08:23 50.19839 14.50178 2112 ft 92 kts 285°
2026-05-01 08:24 50.20005 14.49225 1991 ft 89 kts 285°
2026-05-01 08:24 50.20165 14.48294 1871 ft 88 kts 284°
2026-05-01 08:24 50.20321 14.47379 1754 ft 87 kts 284°
2026-05-01 08:24 50.20476 14.46481 1650 ft 81 kts 284°
2026-05-01 08:25 50.20620 14.45632 1536 ft 80 kts 283°
2026-05-01 08:25 50.20763 14.44794 1428 ft 82 kts 285°
2026-05-01 08:25 50.20910 14.43937 1315 ft 80 kts 283°
2026-05-01 08:25 50.21053 14.43112 1209 ft 78 kts 284°
2026-05-01 08:26 50.21192 14.42311 1106 ft 75 kts 283°
2026-05-01 08:26 50.21328 14.41542 992 ft 73 kts 284°
2026-05-01 08:26 50.21455 14.40809 917 ft 64 kts 285°
2026-05-01 08:26 50.21551 14.40241 916 ft 43 kts 285°
2026-05-01 08:27 50.21616 14.39855 915 ft 33 kts 285°
2026-05-01 08:27 50.21673 14.39522 912 ft 31 kts 285°
2026-05-01 08:27 50.21729 14.39194 905 ft 32 kts 284°
2026-05-01 08:27 50.21785 14.38869 899 ft 27 kts 284°
2026-05-01 08:28 50.21862 14.38736 896 ft 14 kts 12°
2026-05-01 08:28 50.21899 14.38751 897 ft 0 kts 16°
2026-05-01 08:29 50.21914 14.38762 897 ft 4 kts 34°
2026-05-01 08:29 50.21939 14.38819 898 ft 7 kts 71°
2026-05-01 08:30 50.21957 14.38907 899 ft 9 kts 72°
2026-05-01 08:30 50.21979 14.39004 899 ft 8 kts 56°
2026-05-01 08:30 50.22010 14.39068 900 ft 5 kts 58°
2026-05-01 08:30 50.22023 14.39122 901 ft 5 kts 77°
2026-05-01 08:31 50.22001 14.39149 901 ft 4 kts 165°
2026-05-01 08:31 50.21979 14.39141 901 ft 3 kts 261°
2026-05-01 08:31 50.21992 14.39124 901 ft 3 kts 344°
2026-05-01 08:31 50.21997 14.39122 901 ft 0 kts 343°